PST,Max TemperatureF,Mean TemperatureF,Min TemperatureF,Max Dew PointF,MeanDew PointF,Min DewpointF,Max Humidity, Mean Humidity, Min Humidity, Max Sea Level PressureIn, Mean Sea Level PressureIn, Min Sea Level PressureIn, Max VisibilityMiles, Mean VisibilityMiles, Min VisibilityMiles, Max Wind SpeedMPH, Mean Wind SpeedMPH, Max Gust SpeedMPH,PrecipitationIn, CloudCover, Events, WindDirDegrees
2013-12-1,62,45,28,32,26,19,93,57,19,30.36,30.31,30.27,10,9,7,12,3,,0.00,0,,108
2013-12-2,62,45,28,27,23,19,80,45,20,30.30,30.12,29.96,10,10,7,18,6,22,0.00,0,,308
2013-12-3,50,41,32,41,35,25,100,78,43,29.95,29.80,29.67,10,5,2,33,17,48,0.03,6,Rain,301
2013-12-4,37,28,17,25,19,14,93,69,48,29.97,29.90,29.77,10,10,8,21,11,28,0.00,0,,302
2013-12-5,35,24,14,19,16,10,93,73,48,30.06,29.98,29.93,10,9,8,16,4,22,0.00,0,,315
2013-12-6,41,26,10,14,6,0,79,46,18,30.09,30.05,30.02,10,10,7,14,5,17,0.00,0,,303
2013-12-7,37,32,24,32,22,9,100,75,47,30.05,29.96,29.87,10,6,0,37,16,45,4.72,7,Rain-Snow,296
2013-12-8,32,24,15,23,15,9,93,74,55,30.18,30.10,30.05,10,10,8,18,9,29,0.00,0,,292
2013-12-9,32,28,23,10,6,0,54,41,29,30.38,30.30,30.17,10,10,8,25,15,38,0.00,0,,120
2013-12-10,44,34,24,14,6,-2,59,32,25,30.36,30.25,30.18,10,10,8,17,13,23,0.00,0,,106
2013-12-11,48,38,28,16,10,5,47,31,23,30.28,30.23,30.19,10,10,9,22,12,29,0.00,0,,113
2013-12-12,53,44,35,18,13,10,45,31,18,30.27,30.23,30.18,10,10,9,13,9,16,0.00,1,,97
2013-12-13,50,39,28,25,18,12,80,44,25,30.32,30.23,30.16,10,8,5,16,8,20,0.00,0,,312
2013-12-14,53,45,37,19,17,16,45,34,22,30.44,30.38,30.32,10,10,6,23,13,30,0.00,0,Rain,117
2013-12-15,64,52,41,16,15,14,36,24,14,30.43,30.36,30.31,10,10,9,18,12,24,0.00,0,Rain,106
2013-12-16,68,54,41,21,17,14,45,21,13,30.35,30.31,30.27,10,10,9,18,12,24,0.00,0,,110
2013-12-17,66,56,46,21,16,14,34,21,14,30.32,30.25,30.13,10,10,10,18,12,24,0.00,0,,110
2013-12-18,62,50,39,28,22,18,61,34,19,30.14,29.97,29.77,10,9,5,17,7,16,0.00,2,,125
2013-12-19,42,38,35,37,33,27,100,85,57,29.85,29.74,29.68,10,5,1,15,10,23,0.02,6,Rain,300
2013-12-20,44,34,24,36,31,23,100,86,57,29.98,29.90,29.84,10,5,0,17,7,22,0.00,4,Fog,304
2013-12-21,51,38,24,32,29,23,100,75,47,30.10,29.99,29.91,10,8,5,14,5,,0.00,0,,333
2013-12-22,55,40,26,27,25,23,93,57,31,30.35,30.23,30.10,10,10,7,18,7,21,0.00,0,,111
2013-12-23,57,46,35,28,26,25,70,47,31,30.44,30.39,30.34,10,10,4,18,11,23,0.00,0,,115
2013-12-24,64,46,28,28,25,23,86,48,21,30.36,30.32,30.26,10,10,8,16,8,23,0.00,0,,116
2013-12-25,59,49,37,27,18,9,53,32,17,30.40,30.35,30.31,10,10,8,22,12,30,0.00,0,,112
2013-12-26,62,50,39,9,4,0,24,16,9,30.36,30.31,30.27,10,10,7,22,11,30,0.00,0,,113
2013-12-27,64,48,32,14,3,-4,38,19,6,30.33,30.26,30.18,10,10,6,16,7,18,0.00,0,,119
2013-12-28,60,46,32,27,11,0,53,27,9,30.17,30.10,30.04,10,8,3,15,5,18,0.00,0,,329
2013-12-29,55,44,32,10,6,5,35,21,13,30.27,30.21,30.12,10,10,7,18,11,25,0.00,0,,116
2013-12-30,64,45,26,10,5,0,43,23,7,30.32,30.28,30.25,10,10,6,17,7,21,0.00,0,,288
2013-12-31,60,44,28,14,10,7,47,27,12,30.28,30.23,30.18,10,9,4,18,5,22,0.00,0,,317